MTN8109 TJSJ-TAPA

Flight info

Callsign MTN8109
Flight time N/A
Altitude 23000
Route SJU RTE2 COY G633 ANU
Aircraft C208/L-SDF/C

Departure

Time 2026-04-27 03:48
Airport Luis Munoz Marin International Airport (TJSJ)

Arrival

Time N/A
Airport V. C. Bird International Airport (TAPA)
Time Latitude Longitude Altitude Speed Heading
2026-04-27 03:20 18.43633 -65.99769 17 ft 0 kts
2026-04-27 03:37 18.43637 -65.99765 17 ft 2 kts 77°
2026-04-27 03:37 18.43616 -65.99771 17 ft 0 kts 229°
2026-04-27 03:37 18.43603 -65.99792 17 ft 9 kts 251°
2026-04-27 03:38 18.43578 -65.99885 17 ft 17 kts 247°
2026-04-27 03:38 18.43572 -65.99928 17 ft 0 kts 277°
2026-04-27 03:39 18.43572 -65.99933 17 ft 3 kts 278°
2026-04-27 03:39 18.43598 -65.99969 17 ft 11 kts 343°
2026-04-27 03:39 18.43698 -65.99982 17 ft 18 kts 341°
2026-04-27 03:39 18.43839 -66.00043 16 ft 25 kts 338°
2026-04-27 03:40 18.43982 -66.00107 16 ft 21 kts 338°
2026-04-27 03:40 18.44130 -66.00170 15 ft 22 kts 335°
2026-04-27 03:40 18.44188 -66.00206 15 ft 13 kts 326°
2026-04-27 03:40 18.44197 -66.00212 15 ft 0 kts 324°
2026-04-27 03:41 18.44197 -66.00233 15 ft 9 kts 248°
2026-04-27 03:41 18.44149 -66.00346 16 ft 23 kts 244°
2026-04-27 03:41 18.44117 -66.00519 16 ft 19 kts 249°
2026-04-27 03:41 18.44063 -66.00652 16 ft 21 kts 246°
2026-04-27 03:42 18.44004 -66.00795 16 ft 22 kts 248°
2026-04-27 03:42 18.43954 -66.00921 16 ft 18 kts 251°
2026-04-27 03:42 18.43906 -66.01039 15 ft 13 kts 252°
2026-04-27 03:42 18.43874 -66.01129 15 ft 16 kts 248°
2026-04-27 03:43 18.43828 -66.01246 14 ft 17 kts 244°
2026-04-27 03:43 18.43800 -66.01361 14 ft 18 kts 263°
2026-04-27 03:43 18.43764 -66.01487 14 ft 14 kts 257°
2026-04-27 03:43 18.43763 -66.01522 14 ft 0 kts 284°
2026-04-27 03:45 18.43769 -66.01536 14 ft 7 kts 305°
2026-04-27 03:45 18.43820 -66.01563 14 ft 4 kts
2026-04-27 03:46 18.43859 -66.01523 14 ft 0 kts 66°
2026-04-27 03:46 18.43873 -66.01489 14 ft 20 kts 66°
2026-04-27 03:46 18.43991 -66.01199 14 ft 65 kts 66°
2026-04-27 03:46 18.44217 -66.00656 71 ft 89 kts 62°
2026-04-27 03:47 18.44494 -66.00013 167 ft 102 kts 64°
2026-04-27 03:47 18.44792 -65.99310 318 ft 107 kts 65°
2026-04-27 03:47 18.45094 -65.98570 418 ft 115 kts 66°
2026-04-27 03:47 18.45415 -65.97771 412 ft 133 kts 68°
2026-04-27 03:48 18.45702 -65.96838 612 ft 132 kts 70°
2026-04-27 03:48 18.45984 -65.95929 834 ft 130 kts 72°
2026-04-27 03:48 18.46247 -65.95029 1056 ft 128 kts 72°
2026-04-27 03:48 18.46508 -65.94138 1277 ft 127 kts 72°
2026-04-27 03:49 18.46770 -65.93253 1497 ft 126 kts 72°
2026-04-27 03:49 18.47029 -65.92371 1718 ft 126 kts 72°
2026-04-27 03:49 18.47284 -65.91506 1936 ft 125 kts 72°
2026-04-27 03:49 18.47542 -65.90633 2156 ft 124 kts 72°
2026-04-27 03:50 18.47796 -65.89770 2375 ft 123 kts 72°
2026-04-27 03:50 18.48047 -65.88915 2593 ft 121 kts 72°
2026-04-27 03:50 18.48297 -65.88070 2813 ft 120 kts 72°
2026-04-27 03:50 18.48543 -65.87234 3028 ft 119 kts 72°
2026-04-27 03:51 18.48786 -65.86408 3246 ft 117 kts 72°
2026-04-27 03:51 18.49027 -65.85592 3462 ft 116 kts 72°
2026-04-27 03:51 18.49262 -65.84791 3677 ft 114 kts 71°
2026-04-27 03:51 18.49500 -65.83984 3828 ft 118 kts 72°
2026-04-27 03:52 18.49749 -65.83136 3963 ft 124 kts 72°
2026-04-27 03:52 18.50005 -65.82258 4103 ft 127 kts 72°
2026-04-27 03:52 18.50270 -65.81356 4243 ft 130 kts 72°
2026-04-27 03:52 18.50540 -65.80434 4380 ft 133 kts 72°
2026-04-27 03:53 18.50815 -65.79497 4515 ft 135 kts 72°
2026-04-27 03:53 18.51094 -65.78548 4648 ft 136 kts 72°
2026-04-27 03:53 18.51376 -65.77587 4779 ft 138 kts 72°
2026-04-27 03:53 18.51661 -65.76619 4910 ft 139 kts 72°
2026-04-27 03:54 18.51946 -65.75643 5038 ft 140 kts 72°
2026-04-27 03:54 18.52235 -65.74664 5164 ft 140 kts 72°
2026-04-27 03:54 18.52523 -65.73679 5292 ft 141 kts 72°
2026-04-27 03:54 18.52813 -65.72690 5419 ft 141 kts 72°
2026-04-27 03:55 18.53104 -65.71700 5545 ft 142 kts 72°
2026-04-27 03:55 18.53395 -65.70706 5664 ft 142 kts 72°
2026-04-27 03:55 18.53687 -65.69713 5795 ft 142 kts 72°
2026-04-27 03:55 18.53979 -65.68717 5920 ft 142 kts 72°
2026-04-27 03:56 18.54271 -65.67720 6045 ft 142 kts 72°
2026-04-27 03:56 18.54564 -65.66723 6172 ft 143 kts 72°
2026-04-27 03:56 18.54856 -65.65724 6294 ft 143 kts 72°
2026-04-27 03:56 18.55149 -65.64723 6419 ft 143 kts 72°
2026-04-27 03:57 18.55442 -65.63724 6543 ft 143 kts 72°
2026-04-27 03:57 18.55734 -65.62725 6668 ft 143 kts 72°
2026-04-27 03:57 18.55988 -65.61715 6785 ft 143 kts 82°
2026-04-27 03:57 18.56081 -65.60672 6913 ft 143 kts 83°
2026-04-27 03:58 18.56191 -65.59632 7034 ft 143 kts 83°
2026-04-27 03:58 18.56302 -65.58584 7135 ft 145 kts 83°
2026-04-27 03:58 18.56415 -65.57526 7238 ft 146 kts 83°
2026-04-27 03:58 18.56528 -65.56466 7340 ft 146 kts 83°
2026-04-27 03:59 18.56641 -65.55398 7452 ft 146 kts 83°
2026-04-27 03:59 18.56754 -65.54336 7576 ft 145 kts 83°
2026-04-27 03:59 18.56865 -65.53292 7701 ft 145 kts 83°
2026-04-27 03:59 18.56978 -65.52225 7821 ft 144 kts 83°
2026-04-27 04:00 18.57090 -65.51173 7944 ft 144 kts 83°
2026-04-27 04:00 18.57200 -65.50124 8067 ft 144 kts 83°
2026-04-27 04:00 18.57312 -65.49077 8187 ft 144 kts 83°
2026-04-27 04:00 18.57422 -65.48030 8313 ft 144 kts 83°
2026-04-27 04:01 18.57533 -65.46985 8436 ft 143 kts 83°
2026-04-27 04:01 18.57643 -65.45941 8552 ft 143 kts 83°
2026-04-27 04:01 18.57753 -65.44898 8683 ft 143 kts 83°
2026-04-27 04:01 18.57863 -65.43857 8807 ft 143 kts 83°
2026-04-27 04:02 18.57973 -65.42817 8930 ft 143 kts 83°
2026-04-27 04:02 18.58082 -65.41777 9054 ft 143 kts 83°
2026-04-27 04:02 18.58192 -65.40737 9178 ft 143 kts 83°
2026-04-27 04:02 18.58301 -65.39698 9301 ft 143 kts 83°
2026-04-27 04:03 18.58411 -65.38659 9424 ft 143 kts 83°
2026-04-27 04:03 18.58520 -65.37619 9549 ft 143 kts 83°
2026-04-27 04:03 18.58629 -65.36582 9673 ft 143 kts 83°
2026-04-27 04:03 18.58739 -65.35543 9800 ft 142 kts 83°
2026-04-27 04:04 18.58847 -65.34506 9920 ft 142 kts 83°
2026-04-27 04:04 18.58957 -65.33469 10044 ft 142 kts 83°
2026-04-27 04:04 18.59065 -65.32433 10168 ft 142 kts 83°
2026-04-27 04:04 18.59174 -65.31398 10291 ft 142 kts 83°
2026-04-27 04:05 18.59233 -65.30361 10406 ft 142 kts 98°
2026-04-27 04:05 18.58825 -65.29426 10525 ft 142 kts 130°
2026-04-27 04:05 18.58055 -65.28794 10649 ft 141 kts 148°
2026-04-27 04:05 18.57241 -65.28227 10777 ft 140 kts 146°
2026-04-27 04:06 18.56591 -65.27771 10877 ft 140 kts 147°
2026-04-27 04:06 18.55820 -65.27231 10988 ft 140 kts 147°
2026-04-27 04:06 18.55004 -65.26663 11098 ft 141 kts 147°
2026-04-27 04:07 18.53350 -65.25509 11305 ft 144 kts 147°
2026-04-27 04:07 18.52515 -65.24927 11407 ft 144 kts 147°
2026-04-27 04:07 18.51676 -65.24341 11510 ft 145 kts 147°
2026-04-27 04:07 18.50834 -65.23755 11612 ft 145 kts 147°
2026-04-27 04:08 18.49990 -65.23166 11705 ft 146 kts 147°
2026-04-27 04:08 18.49143 -65.22574 11814 ft 146 kts 146°
2026-04-27 04:08 18.48298 -65.21977 11916 ft 146 kts 147°
2026-04-27 04:08 18.47449 -65.21383 12016 ft 147 kts 146°
2026-04-27 04:09 18.46597 -65.20789 12116 ft 147 kts 147°
2026-04-27 04:09 18.45745 -65.20194 12216 ft 147 kts 147°
2026-04-27 04:09 18.44894 -65.19601 12316 ft 147 kts 147°
2026-04-27 04:09 18.44038 -65.19004 12416 ft 147 kts 147°
2026-04-27 04:10 18.43183 -65.18409 12515 ft 147 kts 147°
2026-04-27 04:10 18.42329 -65.17814 12614 ft 147 kts 147°
2026-04-27 04:10 18.41473 -65.17217 12714 ft 147 kts 147°
2026-04-27 04:10 18.40618 -65.16622 12813 ft 147 kts 147°
2026-04-27 04:11 18.39762 -65.16026 12912 ft 147 kts 147°
2026-04-27 04:11 18.38906 -65.15430 13012 ft 147 kts 147°
2026-04-27 04:11 18.38050 -65.14835 13111 ft 147 kts 147°
2026-04-27 04:11 18.37195 -65.14239 13216 ft 147 kts 147°
2026-04-27 04:12 18.36339 -65.13644 13312 ft 147 kts 147°
2026-04-27 04:12 18.35485 -65.13048 13409 ft 147 kts 147°
2026-04-27 04:12 18.34630 -65.12454 13507 ft 147 kts 147°
2026-04-27 04:12 18.33787 -65.11868 13605 ft 147 kts 147°
2026-04-27 04:13 18.32921 -65.11264 13705 ft 147 kts 147°
2026-04-27 04:13 18.32067 -65.10671 13796 ft 147 kts 147°
2026-04-27 04:13 18.31225 -65.10084 13902 ft 147 kts 147°
2026-04-27 04:13 18.30371 -65.09490 14005 ft 147 kts 147°
2026-04-27 04:14 18.29518 -65.08898 14100 ft 147 kts 147°
2026-04-27 04:14 18.28665 -65.08304 14198 ft 147 kts 147°
2026-04-27 04:14 18.27811 -65.07711 14297 ft 147 kts 147°
2026-04-27 04:14 18.26948 -65.07111 14397 ft 147 kts 147°
2026-04-27 04:15 18.26097 -65.06519 14492 ft 147 kts 147°